Starlink 11572

operational
NORAD ID: 62990 Int'l Des: 2025-031 Owner: SPXS Country: US Constellation: starlink
LEOCIRCULAR

About Starlink 11572

Description loading...

Live Position

Loading 3D Globe...

Upcoming Passes

Altitude History

Altitude vs Time

uPlot chart will show altitude changes over time

Two-Line Element Set

1 62990U 25031K 25350.70866264 .00175618 00000-0 13391-2 0 9998
2 62990 42.9988 141.4614 0002999 263.9170 96.1356 15.70913286 49696
Epoch: Dec 16, 2025 • Age: 18 hours

Current Status

Altitude 366.6 km
Velocity 7.69 km/s
Sub-Earth Point -42.30°S, 169.94°E
Launch Date Feb 11, 2025
Age 0.8 years
Type internet

Technical Details

Classification Payload
Mass 960.00 kg
Dry Mass 910.00 kg
Total Mass 960.00 kg
Length 0.30 m
Diameter 4.10 m
Span 29.00 m
Shape Box + pan
Manufacturer SPXS
Bus Type Starlink V2MD
Phase Status In Orbit
Owner/State SPXS/US

Large Constellations

Loading constellations...